星链-35176(STARLINK-35176)

导读

STARLINK-35176是美国于北京时间2025年9月19日发射的星链计划卫星,星链是太空探索技术公司SpaceX打造的低轨卫星互联网星座项目,旨在为全球提供高速低延迟宽带网络服务。该卫星继承星链设计,运行在近地轨道,承担网络覆盖与通信传输任务,进一步拓展全球卫星互联网服务覆盖范围。

Basic Information
目录编号:
65662
目录名称:
STARLINK-35176
国际标识:
2025-211L
轨道中心:
EARTH
卫星名称:
星链-35176
卫星全名:
星链-35176(STARLINK-35176)
卫星状态:
在轨 (已飞行350 天)
发射日期:
2025-09-19 UTC
国别 :
美国 (US)
星等 :
--
Orbit Information
数据来源 国际轨道数据 AOE轨道数据
星历时间 2026-09-02T09:41:07+0800
2天前
查看轨道信息
2026-08-29T23:00:00+0800
5天前
查看轨道信息
半长轴 6843.678km 6843.52km
偏心率 0.0000858 0.0001219
轨道倾角 97.282° 97.282°
近地点辐角 109.211° 109.969°
升交点赤经 285.638° 282.239°
平近点角 250.923° 323.728°
近地点 464.953km 464.548km
远地点 466.129km 466.218km
周期 93.906分钟 93.903分钟
每日圈数 15.334459 15.334991
Detailed Information
固有亮度:
5
最大亮度:
2.5
卫星平台:
Starlink V1.0
覆盖范围:
全球
运营商:
太空探索技术公司
运营商所在国:
美国
制造商(研发单位):
太空探索技术公司
制造商所在国:
美国
使用方式:
暂无
Satellite Introduction
Starlink 计划是 SpaceX 推出的全球卫星互联网项目,通过发射低轨道卫星,为全球尤其是偏远地区提供高速、低延迟的互联网服务。自 2019 年起,Starlink 已部署数千颗卫星,旨在缩小全球数字鸿沟,推动互联网普及。该项目还为军事、航空等行业提供通信支持,带来广泛经济效益。
2D Orbit Map
3D Orbit Map
Orbit Altitude Analysis Chart
Orbit Inclination Analysis Chart
Orbit Comprehensive Analysis Chart
View Comprehensive Chart
Conjunction Data List
Event ID Objects TCA Miss Dist (km) Collision Risk Probability Collision Risk Index (CRI) Action
CDM_260905-072405-390006-566221
2026-09-05T
07:24:03+0000
1.665 km
极远距离
3.323082E-6 低风险 0.45
CDM_260904-115006-460606-566221
2026-09-04T
11:50:26+0000
2.740 km
极远距离
1.147363E-6 低风险 0.36